Wind_Speed
27 27 28 29 28 30 32 34 33 30 29 31 31 31 31 28 25 26 31 34 32 31 29 27 28 26 26 26 24 21 22 22 19 19 17 23 33 28 23 20 14 18 21 17 15 13 11 8 8 5 2 1 0 1 0 1 2 3 3 2 3 3 3 4 4 5 4 4 6 5 4 8 4 2 1 3 7 4 4 5 3 5 6 1 5 18 33 33
28 28 28 29 29 29 31 34 34 32 30 31 32 31 32 29 26 26 30 35 33 32 31 27 28 27 26 28 25 23 22 21 17 17 24 28 29 27 23 21 14 18 24 20 20 18 12 8 7 4 3 1 1 0 0 1 2 3 3 2 4 4 4 4 3 4 3 5 6 4 4 7 6 5 3 3 3 3 5 4 4 5 6 5 11 25 32 31
27 28 28 29 30 29 30 33 34 33 31 30 32 32 32 30 27 26 29 35 35 32 32 30 30 28 28 28 24 25 21 15 10 15 32 31 25 27 26 24 17 18 25 23 23 21 16 13 11 7 3 1 1 1 2 0 1 2 3 2 5 4 3 2 1 2 3 3 7 4 3 5 5 5 3 4 6 4 5 3 1 1 2 5 11 22 28 28
27 29 29 29 30 29 29 32 34 33 32 31 32 32 32 31 28 27 28 33 36 34 32 31 32 29 30 29 27 27 17 6 6 16 34 32 27 28 26 27 21 18 22 22 21 20 18 15 11 6 4 2 1 2 2 3 2 2 4 4 5 3 4 3 1 1 2 1 6 4 3 4 4 3 3 7 7 2 6 7 8 9 10 9 9 17 24 24
28 28 30 30 30 30 28 31 34 34 33 32 33 33 32 32 30 28 28 32 35 35 33 31 32 31 31 30 31 27 15 2 6 20 35 32 31 29 26 29 25 20 20 19 18 17 16 12 8 4 3 2 0 2 3 5 3 2 3 4 4 4 3 5 3 2 3 4 4 4 5 3 2 2 4 10 7 5 7 9 10 11 14 15 14 18 20 20
29 27 29 30 30 31 29 29 33 35 34 33 34 34 33 33 32 30 29 31 33 35 34 32 32 32 32 32 34 29 16 5 5 22 38 31 31 31 26 29 27 23 20 18 16 14 11 8 6 4 3 3 4 4 4 4 4 2 4 3 5 4 2 3 3 3 4 6 4 4 3 1 3 2 4 9 7 7 7 8 10 11 17 20 19 18 16 16
29 27 28 29 29 30 31 30 32 35 34 33 34 34 34 34 33 31 29 30 33 35 35 34 33 34 34 31 29 22 13 9 2 15 32 32 32 31 28 28 30 27 20 18 15 10 8 8 7 6 5 4 5 5 4 3 4 4 4 3 6 6 5 5 4 4 6 6 5 3 1 2 5 4 3 5 7 8 6 4 10 14 19 20 17 16 17 19
28 28 28 29 30 29 31 31 30 34 35 34 34 34 34 35 35 32 30 31 32 35 36 35 35 36 37 30 18 9 10 13 6 4 20 34 34 31 30 28 31 30 22 20 17 12 8 9 9 6 6 5 5 5 4 4 3 5 6 4 3 4 6 6 5 5 6 5 3 4 1 5 7 3 2 6 9 8 5 1 8 13 15 16 15 15 16 18
28 28 28 28 30 30 31 32 30 33 36 35 35 35 35 35 36 33 31 32 32 36 37 36 37 39 41 29 12 5 14 26 18 2 11 32 36 33 32 29 32 29 22 20 19 15 9 8 9 6 7 7 6 5 6 5 3 7 7 4 3 4 6 5 5 6 5 4 3 5 4 7 5 2 2 7 8 5 3 5 8 12 12 13 13 14 16 15
28 29 29 29 30 31 31 32 32 33 36 38 36 36 36 36 36 34 33 32 32 36 38 37 39 42 41 24 10 8 18 35 31 8 9 31 37 36 35 32 33 30 22 18 17 15 9 8 9 6 5 5 5 4 6 7 4 6 7 5 5 4 4 4 5 7 5 4 5 7 7 7 3 2 4 7 6 5 7 6 8 11 13 14 12 13 17 17
28 29 30 29 31 32 31 32 33 33 36 39 38 36 36 36 36 35 33 32 32 35 38 39 39 44 40 21 11 10 14 35 39 17 12 30 37 38 38 34 33 33 24 15 15 15 11 12 12 7 3 4 5 3 3 5 3 5 8 5 6 2 2 3 5 6 4 3 6 7 5 5 2 3 6 6 5 7 8 7 8 11 11 13 13 12 14 17
28 29 29 30 31 32 32 32 33 34 36 39 40 37 36 37 36 36 34 32 32 33 37 39 40 44 34 16 15 15 17 33 40 24 16 29 38 40 41 38 36 36 31 18 14 17 14 16 17 8 4 5 6 3 2 3 3 3 6 4 4 3 4 5 5 4 5 3 5 6 3 5 6 8 7 6 5 7 8 8 9 10 10 10 12 10 11 16
29 29 29 31 32 32 33 33 33 35 36 38 40 38 36 36 36 36 35 33 33 34 37 37 40 42 23 7 15 20 20 28 36 29 23 29 35 37 38 37 35 35 34 23 15 17 15 18 20 8 1 4 5 3 1 1 3 3 3 4 1 2 5 7 4 3 5 4 5 6 3 8 10 10 8 7 5 7 8 9 9 9 8 9 9 9 10 13
30 30 30 31 32 33 33 34 34 35 36 38 39 39 38 36 35 36 34 33 32 33 36 36 40 35 13 3 11 21 23 26 33 31 30 33 30 28 28 29 27 26 27 19 14 12 14 19 17 8 1 2 3 1 4 3 2 3 2 2 2 2 5 6 4 5 6 3 4 7 4 10 8 8 9 8 7 9 9 9 10 9 8 8 8 9 9 12
30 31 31 32 32 32 33 34 35 35 35 37 39 39 38 35 34 35 33 32 32 34 35 36 39 24 4 4 8 23 28 26 33 36 36 37 30 23 21 24 21 19 22 20 14 10 12 17 13 6 0 0 3 4 3 2 1 3 4 3 3 4 4 6 3 9 8 2 2 6 4 9 7 8 9 6 7 8 9 9 9 10 9 9 8 10 9 10
29 30 31 33 33 32 33 34 35 36 35 36 38 38 37 34 32 33 31 31 30 34 33 30 35 24 2 3 9 21 25 23 32 38 39 41 36 27 25 27 21 20 22 18 17 10 7 10 6 2 2 2 4 6 4 1 2 3 5 4 4 5 3 4 3 8 8 3 2 5 4 5 4 6 6 2 7 8 8 9 9 10 10 10 8 9 9 9
29 29 30 32 34 33 34 34 35 36 35 36 38 36 35 31 31 31 29 30 28 32 34 24 28 23 4 3 11 14 16 21 31 35 37 40 40 38 32 22 16 20 21 15 16 11 3 5 1 1 2 2 3 6 5 7 6 4 4 4 4 5 5 3 3 5 7 5 5 7 7 8 7 6 6 3 5 8 8 10 10 9 8 8 8 8 9 9
29 29 29 31 34 34 34 35 35 37 36 37 37 35 34 30 31 29 24 27 22 23 29 19 17 13 3 7 12 11 15 21 32 36 35 36 41 45 35 18 14 19 17 10 9 7 1 2 1 1 1 2 4 7 9 9 8 6 6 5 3 3 6 7 4 3 7 7 7 8 9 13 13 10 8 5 3 6 9 10 9 9 9 8 8 8 8 10
30 29 30 31 33 34 35 36 36 38 37 37 37 35 31 24 22 20 19 22 15 9 10 8 12 5 0 9 12 15 20 23 29 32 31 32 37 39 32 23 19 16 12 7 5 5 4 2 2 5 7 9 9 10 9 6 8 8 6 7 5 4 5 6 5 4 10 8 8 11 10 13 15 13 11 9 4 6 8 8 7 8 8 8 8 8 9 10
30 30 31 31 33 34 35 37 37 39 40 38 37 31 19 13 9 8 11 12 9 7 2 5 13 7 3 7 13 18 22 21 19 21 27 33 34 27 19 17 14 10 11 11 8 6 6 6 8 12 12 12 11 10 7 4 7 8 6 7 8 6 5 5 4 6 8 7 9 13 11 13 15 13 12 9 5 5 8 8 8 8 8 9 9 10 11 11
30 31 32 32 33 35 37 38 38 42 43 41 37 19 8 12 8 6 8 4 9 13 7 1 5 5 1 5 20 26 17 12 11 15 28 34 31 22 11 12 13 8 10 12 9 5 6 10 15 16 12 11 10 9 8 5 5 7 7 7 7 6 5 5 4 5 6 6 7 8 9 13 14 13 11 7 5 8 9 10 11 11 10 9 10 11 11 10
31 31 32 33 34 35 37 38 40 45 45 41 32 11 9 17 10 14 17 4 10 15 11 5 2 2 2 0 21 31 17 12 12 14 25 27 21 17 11 13 16 10 9 11 8 6 8 14 17 13 10 9 9 8 9 7 4 4 4 5 6 4 3 4 3 2 5 5 4 3 7 12 13 13 11 8 8 9 10 12 13 12 12 11 11 11 11 10
31 31 32 33 35 37 38 39 43 47 43 37 28 13 16 20 14 24 20 1 5 10 10 10 5 4 3 3 13 24 15 14 17 14 23 24 14 14 15 14 16 12 12 13 12 11 10 12 12 11 9 11 9 8 9 6 4 3 3 3 5 4 4 4 4 1 4 4 1 3 4 8 8 9 12 11 9 9 11 12 12 12 12 13 13 12 11 12
31 32 32 34 36 37 37 40 42 44 41 37 31 24 25 23 23 29 15 3 4 4 8 11 6 7 6 1 9 17 12 11 16 18 25 25 14 12 15 15 15 13 13 18 18 15 8 4 12 13 11 12 10 10 11 7 6 5 5 5 4 4 6 4 2 1 0 2 1 3 4 7 6 8 12 9 7 10 11 11 12 12 11 12 12 11 11 12
31 32 33 34 35 37 39 37 35 38 36 32 28 28 28 23 28 31 13 1 4 1 7 11 4 9 9 2 6 10 12 10 12 19 24 25 19 13 12 10 11 13 17 19 16 12 7 7 14 14 12 14 12 11 12 10 7 7 8 9 5 4 5 5 4 4 1 4 3 2 2 7 4 7 12 7 4 9 8 9 14 12 10 11 11 12 12 12
32 32 33 34 35 39 36 23 28 37 28 21 25 28 29 28 30 28 10 1 5 2 6 10 5 11 12 5 2 3 10 11 13 23 25 23 20 13 11 9 6 13 18 15 9 5 5 10 15 15 14 15 13 10 12 12 8 7 8 11 8 4 3 5 6 5 3 5 3 2 5 6 5 5 8 6 6 10 7 9 14 11 10 10 11 13 12 12
32 32 34 35 36 40 28 14 29 35 17 18 32 31 31 34 28 20 8 2 6 4 7 9 6 13 16 10 10 6 6 10 12 19 23 23 16 6 10 13 7 11 13 9 6 5 10 14 15 16 15 13 12 11 13 15 9 5 6 13 12 5 4 5 7 5 3 2 3 1 4 4 7 6 5 4 6 9 9 11 12 10 11 12 13 13 13 14
33 33 35 36 39 43 29 22 31 24 15 28 38 32 33 38 25 12 6 5 4 7 7 6 5 13 14 10 15 8 4 17 15 14 23 29 19 5 9 17 13 14 15 12 11 9 15 19 18 18 14 11 12 10 13 15 9 4 7 11 9 6 4 3 3 2 1 1 4 2 3 3 7 6 3 1 4 10 13 13 12 11 12 13 13 13 14 16
34 33 36 38 41 41 30 28 31 21 25 38 39 34 37 37 20 6 3 5 3 4 5 8 6 10 10 9 14 11 7 13 13 12 21 24 18 6 7 16 16 17 17 14 10 7 11 15 17 18 12 10 9 7 14 17 8 3 8 9 6 5 4 3 2 2 3 2 6 6 5 3 6 6 2 0 4 11 14 11 10 12 12 13 12 14 15 14
34 32 38 40 38 36 25 23 30 28 33 43 42 37 32 24 12 4 7 5 3 2 3 9 9 11 15 12 11 13 12 6 4 13 14 10 12 8 2 5 9 14 14 8 4 4 8 10 10 10 9 7 7 6 10 14 8 7 8 8 7 4 4 4 2 3 1 5 6 8 9 5 6 6 5 5 6 9 10 8 8 10 12 13 13 13 14 12
35 34 40 42 37 36 23 13 26 35 41 48 45 33 19 8 5 7 7 1 2 4 4 9 13 17 21 18 11 13 14 7 5 17 12 4 10 10 7 6 3 7 9 6 3 4 9 11 6 7 8 8 8 5 2 5 10 8 5 6 6 3 3 3 3 2 4 6 3 5 8 7 7 5 4 7 8 8 9 9 9 10 11 12 11 11 12 11
35 37 41 42 38 36 24 17 32 43 47 51 38 19 9 5 4 6 4 1 2 7 7 9 15 18 20 20 15 16 15 8 8 18 15 10 9 10 13 13 11 10 7 7 7 4 7 11 9 6 8 12 12 6 3 3 8 6 5 9 6 2 1 2 1 1 5 4 1 3 6 5 10 6 4 11 13 12 11 10 10 11 11 10 10 10 10 9
36 39 39 38 37 33 28 30 41 47 50 46 25 8 6 5 5 7 5 3 2 4 8 10 14 18 21 19 16 17 16 10 11 16 16 15 11 12 16 17 21 17 11 14 12 6 6 9 12 8 6 12 15 11 6 5 10 10 10 12 9 6 5 7 5 1 4 3 1 3 4 3 7 4 9 18 18 14 11 10 10 10 11 10 9 8 8 8
36 37 33 30 30 28 34 41 45 51 50 33 13 7 8 5 5 10 8 3 1 1 5 10 15 18 21 20 15 16 15 11 14 16 14 14 11 12 14 15 20 13 9 14 9 8 11 8 13 14 8 14 18 16 13 9 11 13 9 7 7 6 6 7 5 3 3 1 2 1 1 4 4 3 9 14 13 10 7 8 8 8 10 9 7 7 7 8
37 34 32 28 22 24 36 43 45 49 39 18 8 8 9 6 4 10 10 3 1 2 1 8 16 17 16 17 15 17 13 9 16 16 13 15 12 12 13 13 18 12 9 12 5 8 11 4 10 12 6 17 20 12 9 9 7 8 4 3 4 5 4 3 3 4 4 2 2 3 3 4 4 7 10 9 10 9 9 8 7 9 10 7 6 7 7 7
34 26 28 25 20 23 32 37 42 40 24 9 8 7 6 5 2 5 8 5 4 6 5 7 14 15 13 12 13 19 12 6 15 15 11 16 15 16 16 12 19 19 15 14 8 9 11 6 13 12 5 17 19 8 9 10 7 4 5 6 4 4 7 5 2 2 5 2 3 3 6 5 3 9 11 11 14 12 9 8 8 9 9 7 7 7 7 7
28 20 17 16 22 30 32 35 37 30 12 4 7 6 2 2 1 1 3 4 4 7 9 8 7 9 14 11 10 19 15 6 13 13 10 13 12 16 18 12 16 21 17 15 9 9 11 6 11 16 12 15 14 12 11 9 6 6 7 8 4 3 3 5 2 2 3 3 4 3 9 5 2 6 6 7 15 17 12 7 7 8 7 8 8 7 8 8
25 18 10 10 24 33 35 39 35 19 6 3 5 4 2 1 2 2 3 0 2 3 7 8 3 3 12 14 11 17 18 9 11 12 9 11 9 14 20 13 15 20 18 14 6 5 9 4 1 8 11 8 6 11 10 4 1 4 7 8 6 3 4 3 4 3 3 4 4 4 6 5 7 7 2 4 12 16 14 8 7 9 7 8 9 9 10 8
21 12 5 11 24 30 38 40 26 10 5 6 4 3 2 1 2 2 2 2 1 2 5 4 1 1 5 11 12 17 19 14 13 11 8 9 7 14 21 14 14 21 18 13 8 4 7 6 1 3 5 7 6 7 11 7 1 3 6 6 4 3 6 6 4 3 4 4 5 4 3 4 8 7 6 10 12 13 13 9 9 10 9 8 9 9 9 7
11 5 3 15 25 30 35 29 12 6 6 5 3 2 2 2 1 1 2 1 0 2 3 2 2 3 3 3 5 11 17 16 15 11 8 9 8 13 20 15 14 21 19 12 9 6 4 4 4 2 2 8 8 8 13 15 7 6 9 10 7 3 2 3 2 2 4 4 3 3 5 7 6 5 12 15 15 15 13 10 9 9 9 9 10 10 8 7
4 4 3 16 29 30 26 14 4 4 4 2 3 3 3 3 1 1 2 1 0 1 2 2 3 4 5 3 0 3 10 14 15 11 8 11 10 9 17 19 16 20 18 10 8 7 4 4 7 7 5 10 13 11 14 18 16 12 12 11 10 7 5 5 5 2 3 3 4 4 7 9 5 5 11 14 14 15 13 9 8 8 9 10 10 9 8 7
4 6 5 16 29 27 15 5 2 3 2 2 3 3 3 4 3 2 2 1 1 2 1 2 2 2 4 3 2 2 4 9 12 12 9 12 14 11 17 24 22 21 19 13 12 10 4 4 7 6 4 6 7 4 3 11 14 8 4 7 8 6 7 9 9 6 5 4 3 3 5 9 5 6 9 10 10 9 7 7 8 8 8 10 9 7 6 7
4 6 9 12 17 16 8 4 4 3 2 3 4 5 4 3 2 1 3 3 2 2 2 2 1 2 2 2 3 3 2 3 7 11 10 12 15 13 18 26 24 21 17 13 13 8 4 5 7 4 1 2 3 3 4 1 7 5 2 5 8 9 10 9 6 4 5 6 5 4 7 9 5 4 6 7 7 7 5 6 9 8 6 6 8 7 6 7
5 4 6 7 6 6 4 3 5 5 4 5 5 5 3 3 3 2 2 3 2 3 2 0 1 1 2 2 3 3 3 1 2 6 6 7 12 11 15 25 24 20 17 14 13 10 4 7 10 7 5 1 3 2 1 2 4 6 5 7 11 15 12 6 3 3 4 11 12 7 8 8 3 2 3 4 4 5 8 7 8 7 5 5 7 7 6 6
7 4 3 4 5 4 2 2 5 6 6 7 7 6 4 3 3 3 2 3 2 2 1 0 1 3 4 3 3 3 1 0 1 2 0 2 4 3 9 23 24 19 20 16 13 11 6 7 11 11 11 11 9 13 13 10 9 9 11 14 18 21 20 12 7 6 7 12 12 10 11 6 1 1 4 4 3 2 5 5 4 5 5 5 5 5 6 6
6 4 4 3 4 3 1 1 4 6 7 8 7 5 5 4 2 2 2 3 2 1 2 1 1 3 5 5 5 3 1 1 1 2 1 1 2 2 6 20 25 23 21 17 15 9 3 4 12 13 14 16 13 12 17 19 17 15 20 23 22 24 25 18 10 10 13 10 7 10 14 9 3 4 6 6 4 2 2 3 3 5 5 4 5 5 5 5
4 3 5 4 2 2 1 1 5 6 5 6 5 3 4 5 3 1 1 2 2 1 1 1 1 2 5 8 5 3 3 3 3 3 3 1 2 5 5 14 24 25 19 16 17 11 4 8 16 16 17 15 5 6 9 15 18 20 23 25 24 22 22 18 13 15 15 8 4 11 15 15 13 8 6 8 6 4 5 5 5 5 4 4 4 4 5 6
2 3 3 3 2 4 3 4 8 7 5 4 3 3 6 6 4 2 1 1 2 1 1 1 1 1 6 8 5 4 6 4 3 5 4 2 1 4 5 9 20 23 17 13 16 12 5 11 18 18 19 14 7 11 14 15 16 18 20 22 22 20 19 19 20 20 15 9 12 17 16 17 15 9 10 12 7 5 7 6 4 3 3 3 4 4 6 7
3 4 3 3 3 5 5 6 8 9 7 4 3 3 6 6 5 3 2 2 2 1 1 1 2 2 2 2 2 6 7 5 4 5 3 4 3 1 2 5 12 17 16 13 14 9 6 11 15 15 15 11 9 12 16 17 16 16 18 19 19 19 20 21 23 23 18 12 14 17 15 17 17 13 13 11 7 5 5 3 3 4 4 5 5 6 8 8
3 4 3 3 4 5 6 7 8 8 5 3 4 3 3 6 5 3 3 3 2 0 2 2 4 4 3 2 2 4 4 2 3 5 6 7 5 2 2 1 3 9 12 11 8 4 5 10 13 12 11 9 8 12 15 17 18 18 18 18 17 17 18 19 19 19 16 13 17 21 18 19 18 11 9 8 7 7 5 4 4 5 5 6 6 8 10 9
2 3 5 7 5 4 5 5 5 6 4 2 3 4 3 5 5 4 4 3 1 1 1 3 5 3 3 4 4 4 3 3 5 4 5 6 6 5 3 1 2 4 9 10 5 2 5 7 8 10 10 7 8 13 15 16 17 18 18 18 18 17 17 19 20 20 19 20 23 23 18 18 16 7 8 8 9 10 10 8 7 7 6 8 9 11 11 11
3 5 6 7 5 3 4 4 4 5 3 1 3 5 4 5 6 6 4 2 1 1 1 3 4 2 3 4 4 4 5 4 6 6 4 4 5 6 5 3 2 0 4 8 6 4 6 7 7 10 11 10 12 14 14 14 14 14 15 19 22 22 23 23 23 25 25 21 19 18 18 18 9 7 9 10 11 13 13 10 10 10 9 9 10 11 12 11
Wind_Direction
248 248 248 246 241 238 239 241 240 237 233 235 232 229 230 227 226 224 216 216 216 217 223 224 224 222 218 220 219 214 210 203 200 192 200 220 210 202 201 196 192 192 189 188 190 182 175 187 203 203 169 168 104 159 169 43 76 70 119 173 221 196 201 206 194 199 181 189 210 217 171 139 157 195 170 60 61 80 64 24 359 5 15 155 176 155 157 161
248 247 247 246 243 238 237 240 240 238 234 233 233 229 227 225 225 225 219 217 216 215 219 221 222 219 216 218 217 217 211 201 199 199 217 226 215 206 199 192 192 186 183 185 192 185 169 176 179 144 104 151 293 18 131 335 93 109 128 178 218 195 207 208 201 215 191 182 181 189 173 156 170 172 140 118 136 115 91 11 357 32 31 71 131 145 154 162
247 247 246 245 244 240 235 238 239 238 235 231 232 230 226 225 224 226 222 218 216 214 214 221 221 213 214 214 213 213 200 190 199 220 226 225 217 212 201 196 197 186 184 186 193 192 181 175 162 135 97 151 250 81 118 129 158 163 129 186 230 216 230 232 184 230 247 192 151 166 185 163 180 171 138 139 154 154 155 179 99 129 159 124 137 148 156 165
245 245 246 244 244 241 235 237 239 237 234 231 231 229 225 224 224 225 223 218 218 216 212 220 222 213 211 209 209 203 180 177 222 226 226 221 216 212 204 202 200 190 188 188 192 196 188 171 151 134 115 175 268 75 152 211 193 168 149 191 224 198 213 235 229 205 328 95 144 157 131 142 191 170 143 137 134 224 227 203 185 184 174 156 157 158 162 169
244 243 244 243 242 242 238 235 237 237 234 231 230 229 225 222 223 223 222 219 218 217 212 216 221 215 211 208 204 187 158 202 217 216 223 217 213 212 205 205 201 193 188 186 184 184 183 164 135 113 108 163 179 80 219 221 150 161 211 204 206 160 185 236 230 148 99 79 109 133 136 156 170 133 150 146 153 227 227 212 195 176 166 165 166 166 169 174
244 242 242 243 241 241 240 234 235 237 234 230 229 230 225 221 223 222 222 221 218 218 213 213 219 216 210 206 197 176 163 216 170 208 220 211 208 210 206 206 202 196 189 187 177 167 170 150 133 138 131 164 181 189 231 222 148 193 252 225 215 198 190 226 199 160 116 105 135 164 175 142 119 165 174 162 187 227 225 203 186 173 169 167 163 165 172 178
244 242 241 243 240 239 239 236 234 236 235 229 228 228 224 222 223 222 223 222 218 217 212 211 217 216 206 193 186 176 187 228 174 203 212 205 204 204 205 206 201 198 195 188 173 164 163 149 161 157 141 168 192 209 224 196 169 197 237 237 222 219 216 204 177 159 122 135 182 164 103 160 171 182 158 186 223 235 255 216 171 169 163 159 161 172 180 183
242 241 241 241 240 239 238 236 233 234 235 229 226 226 223 222 222 223 223 223 219 216 214 211 214 214 199 178 169 188 211 211 197 190 201 200 199 197 199 200 199 200 197 193 178 169 165 157 175 158 150 191 189 195 191 157 179 209 220 228 207 217 226 208 174 160 138 151 162 109 149 230 202 179 155 222 241 234 250 101 147 155 152 161 172 180 185 188
239 240 240 239 239 239 238 237 231 231 233 228 224 224 224 221 222 224 223 222 218 215 217 212 213 211 196 178 161 213 215 199 195 191 190 194 194 191 192 191 195 197 196 199 187 172 169 172 188 169 159 185 179 179 174 165 217 216 205 206 193 219 226 199 177 177 160 166 146 139 225 259 236 219 243 235 237 215 154 107 141 151 158 175 181 184 189 192
238 240 239 238 239 238 237 236 231 229 231 230 225 223 223 220 220 223 221 221 217 216 216 213 213 204 189 176 165 216 214 199 199 212 184 188 187 183 186 187 188 191 193 198 190 178 172 177 180 156 143 165 174 177 177 180 210 202 191 213 217 218 222 187 192 200 172 183 181 175 225 264 279 243 243 249 229 147 118 128 157 160 171 184 184 191 193 196
238 238 238 236 237 238 235 235 232 228 229 230 227 224 222 218 218 221 222 221 217 217 216 215 211 194 181 172 189 212 198 197 203 207 183 183 180 177 182 185 183 185 189 190 191 189 182 172 153 130 154 166 163 168 205 196 172 182 183 214 243 259 291 221 204 207 170 195 188 170 236 276 319 238 216 237 210 149 145 157 171 176 183 189 189 193 195 202
238 236 236 234 235 237 235 233 231 228 227 228 228 226 220 216 217 219 222 221 217 219 218 217 212 195 179 176 209 199 178 196 202 198 188 183 182 183 184 186 185 185 187 184 188 191 185 170 151 140 212 165 144 153 231 211 130 156 165 180 254 300 295 236 212 213 176 193 179 145 301 273 233 230 207 209 190 156 167 171 182 192 193 195 195 195 199 206
239 236 235 234 233 234 234 231 229 228 224 225 227 226 219 214 216 219 222 221 216 218 218 218 213 201 187 192 208 188 178 194 197 192 187 184 184 185 186 188 187 188 189 181 171 179 182 173 157 145 209 140 149 171 99 81 133 134 153 156 211 307 270 233 204 202 174 187 171 141 283 256 233 240 223 213 183 152 177 187 191 199 198 201 199 199 207 207
240 237 233 233 233 232 233 230 228 227 222 222 223 223 220 214 215 219 222 220 217 218 219 217 211 205 207 248 183 172 179 186 187 185 179 176 173 173 181 186 186 189 188 167 131 137 159 164 147 110 55 130 145 136 56 19 162 139 154 165 157 186 262 257 194 159 168 212 160 132 248 256 250 254 239 224 189 168 191 199 198 203 201 202 202 203 210 209
240 236 232 233 232 229 231 229 227 225 221 219 219 220 220 215 214 217 219 217 217 218 215 212 208 202 232 294 166 163 171 174 178 179 176 170 157 154 167 169 169 171 167 156 134 109 123 137 122 91 253 284 105 113 82 10 294 163 178 194 186 193 265 291 217 173 176 226 163 140 226 268 273 258 246 222 186 184 201 205 203 206 206 203 203 206 211 215
239 236 234 233 231 228 228 227 226 222 217 215 215 218 216 212 211 212 214 211 214 214 206 204 201 197 251 271 164 159 167 175 178 175 174 169 157 150 148 144 142 142 142 141 143 131 89 99 91 112 137 58 117 126 119 140 254 221 195 191 193 189 229 294 261 205 183 151 205 207 229 275 286 267 276 226 183 193 207 217 213 208 212 208 205 208 210 217
238 235 235 233 229 227 225 225 225 220 214 210 210 212 210 208 204 201 203 204 208 205 201 201 195 196 246 144 149 164 174 177 173 167 169 170 161 150 141 133 127 129 126 119 133 138 57 50 52 252 77 76 138 131 160 196 204 208 190 195 212 188 183 218 264 239 187 163 204 227 241 246 255 271 307 323 183 192 211 223 222 213 216 215 212 214 212 214
238 235 234 231 228 225 224 224 222 217 210 205 205 203 201 201 197 189 184 189 194 196 200 205 188 188 237 165 158 173 176 167 165 164 167 168 160 152 146 137 127 125 121 117 140 144 80 24 99 118 97 162 161 164 188 196 185 183 183 193 223 194 191 205 227 204 174 191 212 212 238 247 255 264 278 295 191 190 220 223 225 222 219 220 216 217 216 216
237 236 233 228 226 224 223 221 220 215 204 200 198 190 185 184 184 179 167 171 177 190 196 184 183 192 43 178 173 165 167 164 164 164 164 162 158 153 145 139 139 136 133 147 169 157 142 114 131 181 196 189 182 185 186 167 166 174 181 194 198 196 217 220 227 208 173 185 221 214 229 243 251 257 257 266 225 199 238 240 237 232 225 226 220 221 221 219
237 236 231 227 224 222 223 219 216 210 199 192 183 173 169 161 164 178 166 169 194 234 256 151 189 212 46 146 156 150 157 163 165 162 162 162 154 145 137 140 141 146 159 165 166 160 158 168 195 205 199 184 179 182 177 141 151 163 176 206 207 199 236 236 229 234 178 173 225 220 228 241 247 254 250 253 241 228 250 249 245 238 231 231 224 225 223 222
236 235 231 227 222 221 221 216 213 206 197 187 174 165 168 167 169 168 151 175 222 231 253 180 183 213 12 138 152 149 148 162 179 172 166 163 151 142 147 152 150 174 178 153 138 134 163 197 211 206 188 170 172 175 182 178 150 163 187 211 217 207 234 239 223 233 181 182 239 225 233 248 248 255 255 248 237 237 237 235 241 236 232 234 228 228 227 228
235 234 229 226 222 221 218 212 209 200 191 184 178 178 183 175 175 166 159 177 216 218 234 228 349 326 319 215 162 159 153 156 175 183 169 161 154 155 165 166 163 176 164 135 128 144 188 216 210 190 166 159 169 173 185 197 173 161 183 206 220 208 236 265 267 244 176 194 252 204 226 252 255 259 260 244 229 235 231 227 233 232 231 234 230 230 229 232
235 231 226 226 223 219 216 210 204 193 184 180 182 185 180 177 172 166 161 111 210 212 230 220 239 235 243 314 173 165 160 159 163 181 173 162 166 169 164 170 167 157 153 158 167 172 197 218 187 159 157 162 166 172 179 197 207 186 166 204 222 182 169 242 272 262 178 192 182 152 234 262 261 268 265 243 225 239 241 233 236 232 230 231 230 231 228 226
233 228 225 224 220 217 214 207 200 190 181 179 183 183 174 170 166 161 146 35 205 198 220 220 239 229 221 234 186 173 165 169 162 172 177 169 165 168 166 167 158 152 171 178 180 184 192 164 145 150 164 170 171 175 178 190 208 207 196 207 219 182 190 218 223 87 303 264 124 82 317 280 235 244 259 246 215 234 243 242 244 241 236 239 240 238 234 228
230 225 222 219 218 214 205 199 194 186 179 177 181 180 171 161 161 160 139 61 211 195 207 208 228 233 225 177 204 183 158 174 172 169 181 177 163 159 169 168 157 165 179 178 179 193 193 137 142 155 167 177 184 185 186 187 193 217 214 205 204 194 206 206 160 103 65 266 265 103 283 280 250 240 254 256 231 240 242 242 246 243 237 241 246 244 238 236
226 223 220 217 216 205 195 191 186 180 174 175 176 171 168 161 158 158 135 50 216 202 172 171 169 207 205 171 165 173 165 183 178 169 178 182 172 164 166 164 167 175 172 170 177 194 185 159 153 160 171 179 189 194 189 179 183 224 204 186 203 202 165 176 166 148 174 237 274 161 201 265 296 255 248 246 242 253 254 247 249 247 241 235 236 240 236 236
222 220 217 214 210 196 187 174 174 174 166 176 174 165 165 164 157 152 141 257 215 156 145 163 166 177 182 170 151 167 179 156 158 175 178 179 177 170 166 164 168 176 160 154 191 181 161 166 162 166 172 178 192 199 187 178 185 221 160 165 193 185 146 183 176 176 205 250 312 34 160 257 278 255 246 229 237 264 263 251 250 242 239 236 232 236 235 234
220 218 214 211 202 190 182 163 164 172 173 171 168 163 165 164 153 132 155 223 184 127 141 167 168 166 169 156 157 200 210 144 154 187 180 176 175 158 175 177 168 165 161 166 189 172 159 170 170 168 175 187 198 191 172 173 189 209 140 153 175 150 140 184 168 171 9 347 272 260 139 220 265 265 293 288 233 259 254 244 245 240 238 239 235 234 233 233
217 217 213 205 192 186 183 166 163 174 172 164 162 161 158 156 146 103 184 213 147 124 151 156 164 166 157 141 163 215 239 163 163 170 170 178 182 175 184 183 166 156 170 186 184 152 156 173 169 167 180 193 186 165 164 177 193 171 126 111 95 87 85 79 121 124 38 300 233 205 176 214 263 248 230 323 231 246 252 244 239 240 242 242 239 237 236 235
215 217 208 195 185 182 178 167 170 172 165 163 162 155 145 145 145 157 204 198 130 144 164 164 170 153 152 159 177 208 225 219 157 153 162 176 185 191 138 153 152 149 170 187 158 131 145 155 160 169 185 177 147 135 165 178 165 114 107 90 69 53 51 56 59 79 70 264 231 187 178 192 270 248 190 206 223 228 245 249 240 239 243 244 242 242 242 240
214 215 200 189 185 178 171 166 170 167 161 161 157 145 135 146 174 183 200 242 112 167 164 165 162 152 163 174 180 197 211 242 176 159 161 161 180 181 137 125 123 140 161 160 135 155 146 146 163 181 172 141 125 133 120 146 140 115 109 116 94 41 28 35 16 48 208 243 246 180 162 169 235 249 189 222 231 219 230 239 239 237 238 242 243 245 245 242
212 206 191 185 182 175 173 168 160 160 159 156 151 140 141 173 200 186 175 35 188 182 165 160 162 161 170 177 181 188 197 221 186 167 165 166 180 180 166 166 157 149 167 167 164 171 155 165 175 170 164 150 147 155 41 81 149 141 134 145 142 144 160 190 197 204 221 247 329 140 129 183 238 257 258 251 246 235 230 230 232 233 238 245 243 245 246 240
204 195 183 178 173 171 176 164 154 156 156 152 148 146 167 184 198 186 162 136 219 191 155 159 166 165 167 178 188 184 188 202 183 173 172 170 177 184 183 181 170 167 169 166 168 164 165 185 175 157 165 166 162 168 173 170 176 179 171 169 173 166 179 198 188 208 235 245 300 115 111 250 265 272 241 244 248 245 237 232 232 231 239 249 252 256 260 245
185 175 164 159 156 156 163 159 154 154 151 149 151 159 178 196 175 179 184 187 232 92 136 163 166 165 171 183 186 176 184 195 178 176 176 175 182 185 186 188 181 176 150 157 169 162 170 194 177 169 170 171 178 187 182 165 176 191 184 169 178 171 185 196 183 202 209 215 293 231 148 212 212 249 239 241 260 270 261 247 239 238 242 253 272 276 267 250
167 151 139 139 142 142 148 151 152 151 149 152 165 168 187 187 160 184 189 182 177 109 103 180 168 165 178 185 183 182 186 182 177 180 179 179 186 184 180 184 184 176 144 159 166 164 183 214 174 174 161 168 182 191 159 134 167 200 169 153 199 178 154 152 173 176 135 118 260 220 233 221 202 278 278 266 275 271 260 260 250 245 247 245 259 263 253 245
155 135 126 131 144 153 153 150 150 152 151 151 162 177 195 170 157 198 169 145 175 154 139 176 172 169 181 184 184 187 189 176 176 182 185 184 187 185 182 181 184 181 168 168 164 168 189 195 170 172 162 176 180 164 153 162 167 176 174 184 192 133 118 115 160 66 84 192 241 194 245 287 315 282 270 259 268 266 248 249 247 242 243 234 234 245 246 241
137 127 121 127 148 161 165 160 155 154 152 141 165 178 178 124 127 175 134 142 171 160 155 172 182 176 177 181 187 183 179 177 181 182 185 185 189 188 184 184 188 189 183 178 178 179 178 170 176 175 173 185 176 151 173 190 154 155 188 180 123 81 89 98 139 29 61 227 261 219 232 259 275 264 264 235 250 259 249 238 254 256 242 234 232 232 239 239
124 125 119 140 156 160 163 161 156 149 146 167 175 159 105 44 152 95 7 232 146 157 176 178 192 199 177 178 184 179 174 176 186 186 180 180 186 183 181 183 189 195 194 180 177 186 163 121 258 192 173 176 157 152 180 228 183 163 177 169 144 169 200 154 171 200 186 225 273 267 245 236 213 228 275 224 233 251 254 239 247 254 234 228 235 233 237 243
121 123 116 156 163 163 160 159 155 140 149 179 183 164 132 81 140 101 15 311 151 162 197 186 119 9 181 176 174 176 179 180 181 184 185 183 182 180 183 183 185 194 195 178 170 183 165 142 223 227 166 149 155 174 186 199 255 83 135 171 179 172 192 187 174 163 171 209 255 286 301 247 219 195 195 231 239 245 250 237 228 235 223 218 228 230 229 226
126 121 119 157 162 161 155 151 145 139 157 174 156 126 120 101 185 143 85 342 17 155 208 230 145 136 148 181 178 176 182 183 178 184 194 185 171 179 188 186 179 188 191 183 172 166 165 159 156 162 130 155 175 197 189 182 170 148 168 187 191 161 141 176 178 114 129 170 220 263 278 257 243 180 186 217 235 236 238 233 224 223 219 219 223 226 223 211
141 114 116 154 154 152 146 131 115 149 146 140 120 111 126 124 106 29 62 92 55 227 215 176 142 141 139 159 260 163 181 184 182 185 191 188 182 181 189 187 177 178 182 185 181 166 166 176 159 156 174 183 187 195 192 186 181 183 191 189 182 168 131 165 211 190 128 177 182 197 260 261 244 194 195 208 223 230 231 227 228 220 214 224 226 222 216 202
131 115 123 150 151 149 139 108 102 133 99 120 122 101 115 113 80 14 15 31 340 311 346 84 93 101 113 127 68 68 165 178 183 187 186 192 196 193 187 185 178 175 179 185 186 173 125 123 147 152 178 190 189 187 181 185 183 180 187 178 169 161 154 179 209 202 175 198 155 141 264 275 250 198 208 219 228 241 237 218 231 230 212 225 238 230 220 214
105 106 113 134 151 154 139 106 118 105 79 117 91 59 72 84 71 52 36 31 9 358 31 49 92 105 87 102 99 105 154 167 190 196 189 192 203 202 186 181 176 176 181 185 182 169 69 103 137 123 110 18 21 46 35 134 175 154 148 170 163 178 187 185 196 180 174 195 184 186 243 263 268 222 220 245 257 264 258 221 229 239 216 221 242 238 226 227
101 87 97 111 127 135 124 131 142 135 126 117 98 80 71 56 58 78 75 71 29 7 43 81 355 76 108 112 104 129 177 187 205 203 195 197 208 208 188 183 178 177 187 190 178 175 171 162 153 140 155 86 45 127 52 347 194 180 187 183 179 188 186 166 141 128 195 211 193 195 238 244 268 274 241 276 284 249 249 242 234 242 238 229 240 240 227 227
116 76 73 82 52 61 93 171 142 139 136 123 119 120 107 69 51 47 74 100 73 12 49 260 11 96 119 118 96 96 140 178 158 184 247 263 230 221 186 186 183 185 197 191 170 172 178 169 166 163 171 173 171 186 191 185 186 191 191 187 188 189 183 181 189 181 210 214 186 193 230 222 107 299 257 292 319 208 234 257 230 224 236 234 235 232 218 209
131 109 122 102 29 40 21 354 120 135 140 129 127 133 123 117 96 31 47 102 104 44 29 21 124 114 125 135 126 114 122 53 65 126 134 272 277 309 196 189 188 193 195 174 155 157 135 173 193 191 190 189 186 192 187 177 177 186 189 190 193 193 190 189 193 201 210 208 184 214 235 235 221 245 256 270 268 209 233 275 236 227 241 235 227 233 227 220
107 116 139 133 111 116 18 61 128 142 149 132 127 130 115 120 131 47 358 96 117 92 10 5 179 167 164 157 142 140 152 122 102 135 135 142 288 309 265 204 194 193 184 161 159 160 132 187 198 200 206 205 165 96 142 168 182 188 188 193 196 193 192 192 202 215 211 200 228 236 234 238 234 225 249 260 248 232 250 253 237 229 229 222 225 246 253 251
77 102 125 98 112 145 146 149 146 139 130 112 94 119 126 124 125 115 62 59 77 70 340 347 5 180 175 166 149 150 151 133 146 161 137 123 250 319 304 222 198 186 170 164 175 170 164 196 196 195 202 199 144 122 149 173 192 196 195 197 196 190 189 197 211 221 211 199 232 233 226 237 238 215 226 240 225 212 234 236 224 187 170 194 209 231 243 246
95 105 103 39 72 115 109 121 135 130 122 111 87 119 138 131 120 109 97 69 52 9 271 203 137 116 136 157 142 157 161 155 172 185 156 131 135 325 297 224 204 185 169 175 185 175 181 198 192 190 193 188 163 156 165 176 187 199 203 199 195 192 194 202 214 222 220 217 240 247 244 249 245 218 211 225 217 209 220 202 175 178 187 196 203 225 237 237
127 131 131 86 88 106 105 113 128 123 106 92 99 112 123 121 117 98 72 77 93 312 287 158 140 119 97 67 89 152 163 139 152 179 167 145 143 183 216 279 239 193 176 179 193 202 208 193 176 174 186 192 181 172 173 178 183 195 202 198 194 193 199 210 219 224 226 226 238 245 245 248 247 222 189 200 210 219 234 223 210 221 216 200 205 227 234 234
91 99 113 115 109 103 112 118 125 124 110 74 108 123 113 120 132 119 75 41 81 150 194 139 138 130 100 82 81 113 123 75 87 125 150 152 155 164 170 6 327 203 181 177 187 221 205 180 154 164 186 196 189 185 180 176 184 197 199 192 189 190 198 210 215 216 214 214 226 235 240 247 249 214 171 188 197 209 230 238 239 243 223 203 214 226 229 232
75 85 91 107 108 88 108 104 90 117 144 176 133 133 130 138 141 123 90 36 46 146 193 150 140 133 103 92 95 138 156 123 94 90 90 95 104 113 129 138 91 353 193 180 180 187 180 166 152 168 187 193 192 190 176 168 188 205 197 187 188 194 202 206 212 216 213 209 216 224 231 240 231 161 184 201 191 200 214 218 225 232 220 210 218 225 230 234
Height
747 748 750 751 752 753 754 755 757 760 762 763 765 767 768 770 770 772 775 778 781 784 787 788 790 793 794 796 797 798 799 800 801 802 801 799 800 802 804 807 808 808 810 812 813 813 814 816 818 819 821 822 823 824 824 823 825 829 838 849 852 851 847 840 838 838 834 832 831 830 830 832 835 833 830 830 834 836 839 839 839 838 836 835 834 834 837 842
744 745 746 747 748 750 751 752 753 756 758 760 762 764 765 767 769 770 773 776 779 782 785 786 789 790 792 794 796 797 798 798 799 799 795 796 799 801 803 806 807 807 808 810 811 811 812 814 816 818 821 824 825 824 825 825 826 832 840 847 848 844 838 833 832 832 831 830 829 830 830 831 832 831 830 833 839 838 839 842 842 840 839 838 836 837 839 841
740 742 743 744 745 746 748 749 750 753 755 757 759 761 763 764 766 768 770 774 776 780 782 784 786 788 790 792 794 797 797 799 799 794 789 793 798 799 802 805 806 807 807 808 809 810 811 812 814 818 823 826 826 826 827 827 828 832 839 845 842 836 832 830 829 829 829 828 828 830 830 830 830 829 829 834 840 839 838 841 842 842 842 841 839 839 840 842
737 738 739 741 742 743 745 746 747 749 752 754 756 758 760 762 764 766 768 771 774 777 779 782 784 786 789 790 793 795 797 800 794 785 785 791 795 797 801 803 805 807 807 808 809 811 811 812 814 817 823 828 827 827 828 827 829 833 835 839 835 831 832 829 827 827 827 828 828 829 830 831 829 828 830 833 841 842 837 834 834 836 839 840 840 840 840 841
734 735 736 738 739 740 742 743 744 746 749 751 753 756 758 760 762 764 767 769 772 775 776 779 782 785 787 789 791 791 798 802 786 777 783 787 791 795 798 802 804 806 807 808 808 810 812 812 814 818 824 828 829 829 829 825 826 832 832 832 830 829 831 827 826 826 826 828 829 830 830 829 828 828 830 832 837 837 830 828 827 829 833 835 837 839 840 841
730 732 733 734 736 737 739 741 741 742 745 748 750 753 755 757 759 762 765 767 769 772 774 777 780 783 785 787 787 787 793 792 776 773 780 783 789 792 796 800 803 805 806 807 807 809 811 812 815 820 824 827 830 830 829 825 825 832 832 829 829 828 829 826 825 826 825 828 829 830 829 828 829 829 829 830 830 827 822 822 824 826 828 830 834 837 839 840
727 728 730 731 733 734 735 738 739 739 742 745 747 750 753 755 757 760 762 764 766 769 772 774 779 781 784 786 787 786 785 779 771 771 775 780 786 789 795 798 801 804 804 805 805 807 810 812 815 819 823 828 830 829 827 825 825 831 833 829 828 827 826 825 824 825 824 826 828 827 828 829 830 829 829 828 824 822 821 821 822 825 828 831 834 836 836 837
723 725 726 728 729 731 732 734 736 737 738 742 745 747 750 752 754 757 759 761 763 767 769 772 777 779 782 783 785 788 782 774 771 771 772 777 783 787 792 796 799 802 803 804 803 805 808 812 814 815 823 826 826 827 826 827 829 830 830 828 827 827 825 823 824 825 824 825 826 827 829 829 828 828 828 826 821 820 821 821 823 826 829 831 832 833 835 835
719 721 723 724 726 728 729 731 733 735 735 738 742 744 747 749 751 754 756 758 760 764 766 770 774 777 779 778 783 785 773 768 771 770 771 774 779 785 789 792 796 800 801 803 802 803 807 810 812 811 818 822 822 825 824 830 833 827 826 826 826 826 824 824 825 825 825 825 826 828 830 828 827 829 827 822 818 819 820 822 824 826 829 830 831 832 833 834
715 717 719 721 722 724 726 728 730 732 733 734 738 741 744 747 749 751 753 756 758 761 764 768 771 774 775 775 782 778 763 765 771 769 771 773 777 782 786 790 793 797 801 802 802 802 804 806 808 808 813 817 820 823 823 827 827 822 824 825 825 825 823 825 825 824 825 825 825 828 830 828 827 830 827 819 817 819 821 824 825 826 828 828 829 830 830 831
712 713 715 717 719 720 723 725 726 729 730 730 734 738 741 744 746 749 751 753 756 759 762 766 770 771 768 771 776 767 758 764 767 768 772 773 777 779 783 788 790 795 798 800 802 801 802 804 805 808 813 816 818 822 822 822 821 820 823 825 826 826 826 826 825 825 826 826 825 826 828 828 829 829 823 817 817 819 821 824 826 826 826 826 826 828 828 829
708 710 711 713 715 717 719 722 723 726 728 728 730 735 739 742 744 746 749 751 754 757 760 764 769 767 765 767 764 757 756 761 763 768 771 771 776 779 781 786 788 791 795 798 800 801 802 802 803 809 813 813 818 824 822 819 820 821 823 828 829 828 829 827 825 825 825 826 824 826 833 832 828 823 818 816 816 818 820 823 825 825 825 825 825 826 826 826
704 706 708 710 711 713 715 718 721 723 725 727 727 731 737 739 742 744 747 749 752 756 759 763 767 765 764 760 753 752 757 760 763 767 769 772 776 779 783 786 788 791 792 795 797 799 801 801 802 808 812 813 818 820 818 818 820 823 825 827 831 835 833 825 825 826 825 827 822 827 840 833 822 818 815 814 815 817 820 821 823 823 823 824 824 825 825 824
700 702 704 706 708 710 712 715 718 720 723 724 725 729 734 737 740 743 745 748 751 754 757 762 764 764 762 755 749 752 756 759 764 764 767 771 775 780 785 786 789 792 792 795 798 799 800 801 802 808 813 814 815 815 818 822 823 825 829 829 833 841 837 824 825 827 827 828 821 828 842 830 818 817 813 812 814 815 817 819 820 820 821 822 822 823 823 822
695 698 700 702 704 707 709 711 714 717 720 722 723 726 731 735 738 742 744 746 749 753 757 761 762 761 760 755 749 749 754 758 759 760 763 767 772 780 784 787 790 792 793 797 800 801 801 801 804 811 816 815 814 818 825 828 826 826 834 839 837 839 837 826 824 825 825 827 823 829 840 830 818 815 811 811 814 814 815 816 818 818 818 819 820 821 821 820
691 694 696 698 700 703 705 708 710 714 717 720 722 725 729 734 737 740 743 745 748 751 756 757 755 757 757 752 749 749 752 755 754 758 762 764 768 776 782 787 790 792 795 798 800 802 802 803 808 814 817 817 817 821 830 835 833 828 833 840 838 838 840 831 825 823 821 825 827 828 832 827 818 811 810 812 813 814 815 815 815 816 815 816 817 817 817 818
687 690 692 694 696 699 702 704 707 711 714 717 720 724 728 732 735 739 742 744 747 750 752 751 751 756 753 746 748 749 747 750 754 757 761 763 765 771 779 785 790 793 795 799 802 804 806 810 814 816 817 820 820 822 834 842 839 834 832 836 836 837 840 836 827 824 822 824 827 829 829 824 815 810 810 812 813 814 814 813 813 813 814 814 814 815 815 815
683 685 688 690 692 695 698 701 704 708 711 715 719 723 727 731 734 736 739 742 746 750 751 748 750 754 748 742 744 745 745 749 752 755 760 764 765 768 774 781 788 791 796 802 804 806 812 815 818 821 822 824 822 821 829 833 831 834 835 835 836 835 836 835 827 823 824 825 827 830 831 825 817 812 811 811 813 813 812 811 811 810 811 812 812 812 812 812
679 681 683 686 688 691 694 697 700 704 708 713 718 723 728 732 733 734 735 738 740 742 740 739 741 740 736 736 738 740 744 749 751 754 758 761 766 768 772 779 784 788 797 804 806 807 811 817 823 823 820 820 819 817 819 820 821 827 830 831 833 835 835 831 824 820 821 827 829 829 829 824 818 814 811 810 811 812 811 810 810 809 809 809 809 809 809 809
675 677 680 682 685 687 690 693 696 700 705 710 715 720 723 726 730 732 733 734 732 729 728 730 732 732 733 734 737 742 746 751 752 753 756 759 762 769 775 779 784 789 793 798 805 805 807 818 820 812 809 812 816 816 815 815 817 821 826 829 829 832 833 827 823 819 818 825 827 824 824 822 816 813 809 809 810 811 811 810 809 808 807 806 806 805 805 804
671 673 676 678 681 683 686 689 693 697 701 706 709 711 712 713 717 720 726 733 731 726 728 730 730 732 735 734 734 738 743 752 756 753 754 758 758 767 777 779 787 795 791 793 802 805 808 813 807 800 803 809 814 816 815 815 816 821 825 828 830 833 831 823 820 819 818 824 824 821 825 822 814 811 808 808 811 810 808 807 806 805 805 803 802 802 801 799
667 669 671 674 677 679 683 686 689 693 698 702 704 704 704 705 707 708 716 727 728 726 728 731 732 733 734 734 732 733 736 747 757 757 755 758 759 764 774 777 783 791 792 794 802 809 813 804 794 797 803 808 814 816 817 818 819 823 827 830 833 833 830 824 819 818 820 824 824 824 826 821 814 810 807 807 808 805 802 801 800 800 801 801 799 798 797 796
663 664 667 670 672 676 679 682 686 690 694 696 697 699 700 704 707 708 714 724 728 728 730 731 734 734 733 734 731 733 736 739 750 757 754 757 760 761 767 774 779 787 792 793 797 805 807 795 791 800 803 808 816 818 820 822 823 826 828 832 832 828 829 828 822 819 821 823 824 824 824 820 814 810 805 803 804 801 798 797 796 795 795 795 794 793 793 793
659 660 663 665 669 672 675 679 684 687 689 691 693 695 698 703 707 710 715 725 728 728 730 731 733 733 731 732 730 732 736 735 740 748 750 751 757 760 763 768 776 786 789 786 788 795 796 791 791 799 803 809 816 819 821 825 828 828 827 831 829 824 825 825 822 820 822 824 822 823 827 818 810 810 802 795 799 799 796 795 793 792 792 791 790 789 789 789
654 657 658 661 665 667 672 678 681 684 686 689 692 695 700 702 706 709 716 727 729 728 731 730 732 730 727 731 731 729 732 734 734 739 743 744 748 756 762 763 770 783 785 784 789 794 794 790 790 800 805 808 814 817 819 822 828 829 823 824 824 821 821 821 822 823 829 831 822 825 836 822 806 809 803 795 798 796 794 794 790 789 790 789 789 787 786 785
651 653 654 658 660 664 671 674 676 681 684 687 690 695 699 701 707 709 716 733 733 728 731 731 729 725 723 730 732 731 733 734 733 735 740 743 742 745 757 761 763 773 777 782 789 790 791 789 789 800 805 807 813 816 815 816 827 829 816 815 821 821 820 823 823 825 832 835 825 825 836 828 811 804 799 797 798 795 794 792 788 786 787 786 785 782 781 781
647 649 651 654 657 662 666 666 670 676 677 682 688 694 697 700 707 706 717 739 730 718 726 728 724 717 716 723 728 731 731 727 735 739 736 742 743 744 754 758 760 766 768 779 790 784 783 790 792 797 803 808 812 811 808 810 821 823 808 810 821 822 823 824 823 825 829 831 829 827 832 834 822 803 795 796 796 794 791 788 785 784 783 780 778 777 776 775
642 645 648 650 654 658 660 660 665 669 671 678 684 692 696 699 706 706 722 735 711 699 714 718 716 712 711 718 724 729 722 715 730 738 733 738 742 745 754 754 754 762 762 770 782 775 773 785 789 792 801 804 802 800 801 806 814 814 806 810 818 822 824 825 825 829 832 833 832 830 832 837 825 804 799 799 796 793 785 780 780 778 777 774 773 772 770 768
639 642 644 647 652 657 660 660 662 665 670 677 684 691 694 699 707 712 724 719 690 688 702 704 709 710 710 718 724 728 722 712 717 727 733 739 739 742 749 747 748 759 762 763 772 773 772 777 780 787 797 797 794 795 797 802 809 809 808 813 820 826 829 832 832 831 836 837 831 829 832 833 818 797 799 803 796 789 779 775 775 771 770 769 767 767 764 763
635 638 640 645 651 655 660 661 662 665 670 677 684 689 692 698 704 711 714 699 681 689 696 695 700 702 708 719 725 729 727 719 716 723 735 739 739 741 744 746 749 757 764 767 773 775 772 773 778 783 788 789 791 795 797 800 806 809 813 820 828 832 831 836 836 833 841 839 824 822 826 831 821 795 790 794 783 776 772 771 771 768 767 765 762 762 760 759
632 634 637 643 646 649 654 658 661 664 669 676 682 688 694 699 702 702 697 683 677 687 691 693 695 694 702 713 720 725 727 723 719 722 733 739 741 742 742 749 758 764 771 776 779 778 775 779 782 779 778 783 789 797 800 803 806 809 815 823 833 840 838 840 843 842 845 836 821 822 825 831 825 794 781 780 769 766 767 765 765 764 763 761 760 759 757 756
629 631 636 640 643 646 649 652 656 661 667 673 679 687 694 699 698 691 684 681 680 682 684 690 690 689 699 707 710 716 722 723 719 718 725 733 739 739 734 738 747 760 775 781 782 783 781 779 777 776 776 777 787 801 809 811 811 811 815 821 832 846 848 846 850 847 840 832 826 828 830 828 811 785 776 775 766 763 763 760 760 758 757 757 757 757 755 755
627 630 636 640 642 644 646 650 655 659 665 670 677 686 690 692 687 676 676 682 681 677 678 684 685 686 696 703 703 708 716 719 718 717 720 725 733 735 729 725 723 730 749 766 776 783 785 780 776 778 779 775 779 794 805 810 810 807 807 809 818 836 841 838 844 843 834 831 830 829 830 820 799 779 771 764 756 756 758 758 758 757 755 753 753 754 754 754
625 628 634 638 640 641 643 648 651 655 662 670 677 684 686 684 677 670 674 681 681 679 679 680 684 686 690 693 696 701 710 715 714 715 719 724 729 731 729 728 724 721 734 754 765 770 776 776 771 769 770 769 771 776 781 790 797 795 791 794 800 811 818 821 829 831 829 832 834 834 826 806 788 777 766 758 755 755 756 756 757 756 755 755 755 754 752 751
625 628 630 635 640 641 643 646 649 653 660 668 675 680 676 670 668 668 671 679 682 683 682 680 681 687 691 690 691 694 699 707 712 714 717 720 724 725 726 728 726 724 734 752 760 762 767 766 760 758 758 761 767 769 770 783 797 795 789 793 796 796 800 814 823 824 827 831 831 830 816 793 780 770 762 760 757 755 755 755 756 755 753 754 754 751 748 747
624 627 629 635 640 642 646 647 649 653 658 666 674 674 666 660 665 666 665 672 679 678 681 682 679 685 692 691 691 692 694 700 707 712 714 716 717 717 718 719 717 715 719 731 742 749 758 761 756 757 760 759 763 768 769 776 788 793 793 794 793 789 791 808 826 830 831 828 822 817 804 789 782 768 756 755 750 745 748 750 751 751 750 751 750 748 747 745
621 626 630 637 641 643 647 649 650 653 660 669 670 668 666 666 672 674 668 669 673 672 675 677 676 679 684 689 691 690 694 700 703 707 711 714 714 711 712 714 713 710 706 711 723 727 735 753 755 752 759 760 757 764 769 767 772 786 793 789 788 793 792 798 817 830 834 829 817 810 800 791 788 773 755 755 751 741 741 744 747 748 749 750 748 747 746 744
619 628 634 639 642 644 647 650 653 656 666 672 667 667 673 675 677 681 679 675 673 674 672 668 675 681 676 679 686 687 691 698 701 704 707 710 708 705 708 712 711 711 706 706 722 723 726 754 766 754 757 763 758 766 777 775 772 776 780 777 780 795 799 799 807 816 823 823 809 806 805 794 785 770 752 750 749 740 739 743 743 743 745 747 745 744 744 744
621 631 638 640 642 644 646 650 655 660 670 671 664 668 676 678 680 682 684 681 674 675 673 666 675 686 680 673 677 681 686 691 696 703 704 704 703 699 699 703 707 710 706 706 719 724 724 748 768 761 757 763 763 769 778 779 777 774 776 778 777 782 788 791 796 800 808 812 801 800 799 781 768 763 750 744 741 735 735 739 739 740 740 741 741 740 741 743
623 629 638 640 641 644 646 650 657 662 668 667 664 671 677 679 683 683 683 683 676 673 673 670 672 683 687 682 677 677 680 685 692 699 701 699 699 698 695 695 703 707 707 708 714 722 727 739 759 766 763 762 763 765 765 766 773 774 775 778 777 779 783 785 790 793 798 804 801 799 790 763 751 754 745 738 735 729 729 731 734 737 737 738 738 736 738 741
622 627 636 640 641 644 646 652 660 662 664 665 668 675 677 677 681 683 682 682 680 676 674 673 672 675 682 684 682 680 679 681 687 694 697 694 692 695 691 688 695 701 707 714 715 720 727 733 749 766 766 758 754 752 749 751 758 760 762 766 768 774 783 790 797 794 792 795 793 795 784 752 739 743 736 730 729 724 725 727 729 734 735 734 735 735 737 739
621 626 636 640 642 644 645 653 661 661 663 665 666 671 674 675 679 681 680 679 680 678 674 674 676 678 681 682 685 689 684 679 684 688 689 688 684 683 680 679 685 692 699 706 708 711 717 727 745 761 761 754 751 749 749 750 751 754 758 761 765 771 776 785 793 789 789 791 787 795 788 749 731 739 735 729 728 725 728 729 727 730 733 732 733 735 738 738
622 628 637 642 643 642 644 654 661 662 664 666 666 670 673 676 680 681 680 680 680 678 675 675 675 678 683 687 689 693 690 683 684 684 681 683 680 673 673 675 680 689 694 698 705 711 715 728 749 761 760 756 754 752 751 752 753 757 762 761 764 768 766 771 777 779 785 787 784 796 791 750 730 736 736 733 733 731 731 730 726 727 731 734 733 733 735 736
625 632 640 643 644 643 646 653 657 661 667 668 669 674 677 678 682 681 681 685 686 683 679 677 677 677 684 690 689 692 695 688 685 685 683 682 677 671 672 675 678 686 689 687 693 701 707 720 739 756 765 767 765 762 762 763 760 757 760 761 759 760 764 769 774 780 782 774 774 789 781 746 730 733 734 734 734 730 730 730 729 728 729 732 732 732 734 735
625 635 644 646 646 646 650 653 654 659 666 668 671 676 678 681 685 683 683 686 689 688 684 681 681 681 685 691 692 696 700 694 689 692 692 688 680 673 673 676 678 681 679 678 684 690 700 709 716 731 746 750 750 746 743 749 753 750 751 755 752 752 759 761 766 778 775 761 765 774 759 737 730 729 729 730 728 727 727 729 730 731 729 729 730 731 732 732
620 631 642 649 651 651 653 653 653 659 663 664 669 674 675 681 686 686 685 687 689 689 687 684 683 682 684 688 691 695 699 699 697 696 697 693 685 679 676 674 676 677 676 682 688 693 704 708 705 709 713 710 712 710 705 714 730 736 739 743 743 743 746 749 758 766 758 754 764 760 742 736 735 730 727 725 724 725 728 728 728 728 728 729 730 731 732 732
618 626 634 642 650 654 656 654 655 658 660 660 665 670 673 679 684 686 685 685 688 689 688 687 684 682 682 683 685 690 695 699 699 696 699 698 691 686 682 675 674 675 678 685 687 690 702 706 701 703 704 702 705 708 707 714 723 727 729 733 737 739 744 750 753 748 743 756 767 753 740 742 737 731 727 722 721 725 726 725 724 724 727 729 730 731 731 731
621 628 631 632 640 649 653 654 654 657 658 658 662 669 673 677 680 682 684 685 687 688 687 687 685 682 680 677 677 684 691 694 694 694 698 699 696 692 684 676 673 674 681 688 682 682 694 697 695 698 701 706 709 708 711 719 724 724 725 729 734 740 746 749 746 738 740 754 752 736 736 740 734 733 730 719 720 724 721 721 724 725 727 728 728 729 729 729
621 628 633 634 638 644 647 649 651 654 657 658 663 669 672 675 678 679 682 684 686 687 686 686 687 684 683 680 676 678 683 683 685 691 694 695 700 701 690 681 676 672 680 686 677 676 686 689 691 697 703 710 711 706 708 717 723 726 727 728 733 738 742 743 740 735 738 746 741 733 738 736 725 726 727 721 722 724 722 726 727 725 724 725 727 728 727 728
618 622 630 636 641 644 646 649 650 654 658 659 664 670 670 674 678 679 682 684 685 686 685 686 687 687 688 685 680 679 682 679 677 684 688 689 697 703 697 694 691 680 678 685 680 678 683 685 688 696 705 714 714 708 709 715 719 724 727 728 732 738 743 744 741 738 741 746 739 733 736 728 712 713 722 723 722 722 724 726 725 722 722 724 726 726 725 726
618 620 622 630 643 648 649 651 651 654 659 661 665 670 671 674 677 678 683 687 685 686 687 687 688 689 688 687 685 685 689 687 681 683 685 682 686 694 696 702 704 690 679 683 684 681 681 686 691 697 706 716 716 711 711 714 718 723 726 728 732 737 740 738 733 730 732 735 734 734 734 722 707 709 718 721 719 720 720 720 719 720 721 722 723 722 722 723
620 623 623 627 641 650 650 653 655 656 661 663 663 667 670 673 675 676 682 689 689 688 689 688 688 688 688 688 689 688 689 689 687 689 691 688 689 695 699 704 709 700 687 682 680 680 681 685 690 697 701 707 712 711 712 718 724 723 719 720 724 724 723 723 721 717 716 721 728 729 719 706 703 709 715 718 719 717 716 716 716 716 719 722 722 719 718 719